Wind_Speed
13 14 15 17 19 20 22 22 22 23 25 26 27 28 29 29 29 30 30 29 26 25 27 27 29 30 28 26 24 23 24 24 24 24 24 25 26 26 26 25 24 24 25 28 30 30 29 28 27 28 30 33 34 35 35 34 33 33 33 34 34 34 33 32 30 31 32 35 37 39 39 39 40 42 42 40 40 40 38 38 37 36 36 35 36
12 14 15 17 19 21 21 20 21 23 24 25 27 29 30 30 30 30 30 30 28 26 27 27 29 31 29 27 25 25 25 25 25 25 25 26 26 26 26 25 24 24 25 28 28 28 27 28 29 30 33 36 38 39 38 36 34 33 34 35 35 35 35 35 34 33 33 34 37 39 40 40 41 43 43 41 40 40 39 39 38 38 37 37 36
13 15 17 19 22 24 24 23 23 24 25 26 27 29 31 31 32 31 31 32 30 27 27 27 30 31 30 28 27 26 27 26 26 26 26 27 27 27 26 26 25 25 25 26 27 28 28 29 31 32 34 36 37 37 37 36 34 34 35 36 36 36 37 38 38 37 34 34 36 38 39 40 42 43 44 43 42 40 39 38 38 38 38 39 38
15 17 20 22 24 28 31 29 26 27 28 27 28 32 33 32 32 33 33 33 31 29 28 28 30 31 30 28 28 29 29 27 27 27 28 28 28 28 28 27 26 27 27 28 29 30 31 32 34 34 35 35 34 35 35 34 34 34 35 36 36 37 38 40 41 40 37 35 36 38 39 40 43 44 45 45 43 42 40 38 38 38 39 39 39
18 20 23 25 27 32 35 34 32 32 33 31 31 34 36 34 33 33 33 33 33 33 32 31 31 30 29 28 30 30 29 27 28 28 29 30 30 30 29 29 29 29 30 31 31 33 34 35 37 37 37 36 34 34 34 34 34 34 35 35 36 38 39 41 42 42 41 38 37 38 39 41 44 46 48 47 44 42 40 39 38 38 39 40 40
20 22 25 28 30 32 33 33 34 34 35 38 38 38 37 38 39 38 35 33 34 35 35 34 32 30 29 29 30 29 27 27 29 29 29 30 31 31 31 31 31 31 32 33 33 34 36 38 39 39 38 37 35 34 34 34 34 34 35 36 37 38 40 42 43 44 44 43 41 41 41 43 46 48 49 48 45 42 40 39 38 39 40 40 41
22 24 28 29 29 28 29 30 32 33 34 37 39 39 41 42 42 39 37 37 37 37 35 34 32 31 30 30 29 28 28 29 30 30 30 31 32 32 32 32 32 33 33 34 34 35 38 40 40 41 40 38 37 35 35 35 34 34 35 37 38 39 41 43 45 46 46 46 45 45 45 46 47 48 48 47 45 43 40 38 37 39 40 41 42
24 26 28 28 27 28 30 34 36 34 33 33 33 36 41 43 42 40 39 40 41 39 37 35 33 32 31 31 29 29 30 31 31 31 31 32 32 32 33 33 34 34 34 33 34 36 38 40 41 41 41 40 37 35 34 34 35 35 36 38 39 39 41 43 45 46 47 47 47 47 47 47 48 48 47 46 44 43 41 39 38 38 40 41 42
25 26 27 26 27 30 34 38 42 40 37 34 34 36 37 38 39 40 41 42 41 39 39 38 35 33 32 30 30 31 32 33 33 32 31 32 32 33 34 35 34 34 33 33 34 37 40 41 42 43 42 41 38 36 34 34 36 37 39 41 41 41 41 43 44 45 46 46 46 46 47 48 48 48 46 44 43 42 41 40 40 39 40 40 41
23 24 24 26 30 34 35 39 43 42 39 36 36 38 38 36 35 36 38 40 40 40 41 39 35 33 31 30 31 33 34 35 35 34 32 32 33 34 35 35 35 33 32 33 36 38 40 42 43 44 43 42 41 39 37 36 37 39 40 42 43 43 43 43 44 45 45 44 44 47 48 49 48 47 45 44 42 41 41 41 40 40 40 40 40
22 23 25 28 33 35 36 38 41 39 36 34 33 34 33 33 34 35 36 37 37 39 40 37 33 32 30 30 32 34 35 36 37 35 33 33 33 34 35 36 35 33 32 35 38 39 41 44 44 44 43 43 44 43 40 38 38 39 42 43 44 44 43 43 42 42 42 42 45 49 50 49 49 47 45 43 42 41 41 41 40 39 39 39 39
25 26 30 32 35 37 38 39 41 40 39 36 32 30 31 33 35 36 37 36 36 37 37 35 33 33 34 34 34 34 35 37 38 36 35 34 34 35 35 35 34 33 34 37 39 41 44 45 45 45 44 45 46 43 40 38 37 39 41 43 43 43 41 39 39 41 42 44 48 51 51 50 49 46 43 42 41 41 41 41 40 39 39 39 39
29 31 33 35 36 39 41 41 42 44 44 38 31 29 30 33 35 36 36 35 34 34 35 35 35 35 35 35 34 34 36 38 38 37 36 35 35 35 35 35 34 34 36 39 41 43 45 47 47 45 44 46 46 42 39 37 37 38 40 41 40 40 39 39 41 44 46 47 49 51 51 50 47 44 41 40 40 41 40 39 39 39 38 39 39
32 33 34 36 38 41 42 43 44 45 43 38 34 33 34 34 35 35 34 33 33 33 33 32 30 28 29 30 32 35 37 38 39 39 37 36 36 37 36 36 35 36 38 40 42 45 48 49 46 43 45 47 45 41 38 37 39 41 42 41 41 42 43 44 46 48 49 49 49 50 50 49 46 42 40 40 41 40 39 38 38 38 37 37 38
35 36 37 39 41 42 43 44 47 46 42 40 39 39 39 36 33 32 33 33 33 31 28 25 23 24 25 27 31 34 37 38 39 39 38 36 36 37 37 37 37 37 39 41 45 48 49 47 43 43 47 46 42 41 41 42 45 46 46 44 44 45 46 47 49 50 50 50 50 50 50 49 44 40 40 41 40 40 39 37 36 37 37 36 36
38 39 41 42 43 45 45 46 48 47 44 41 39 37 36 33 31 31 33 33 32 29 26 24 24 24 25 26 29 33 36 37 38 39 38 37 36 36 37 38 38 39 41 44 47 49 48 46 44 45 46 42 39 43 45 45 47 48 47 45 45 47 48 49 50 51 50 49 50 50 49 46 41 38 39 40 40 39 38 36 36 37 37 36 35
41 42 45 46 47 47 47 48 50 48 43 41 39 35 32 32 32 32 33 33 31 28 27 26 26 25 24 24 25 28 32 35 37 39 39 37 36 37 38 39 40 42 44 47 49 49 48 48 46 43 42 42 44 48 48 44 44 46 46 46 47 48 49 48 48 48 48 48 48 47 45 42 38 37 38 40 40 39 37 36 36 37 37 36 35
43 45 47 48 48 49 49 50 51 49 44 42 39 34 32 34 34 33 34 33 29 27 28 29 27 26 25 24 25 27 31 34 37 39 39 37 36 37 39 40 41 44 46 49 51 50 49 49 46 42 44 47 48 49 49 45 42 44 45 46 46 46 45 44 43 43 45 46 46 44 42 39 38 38 39 40 39 38 37 36 36 36 36 35 35
46 48 49 49 49 49 49 50 51 50 45 41 37 35 35 36 34 32 33 32 28 26 27 27 27 27 26 26 27 30 34 36 38 38 37 36 36 37 39 41 42 46 49 51 51 49 48 48 47 46 48 48 48 49 50 47 43 42 42 42 42 42 41 41 40 41 42 42 42 41 40 39 39 39 40 39 38 37 36 36 36 36 35 35 35
50 50 50 50 50 50 50 50 50 48 43 39 36 35 35 35 34 33 31 29 27 27 27 27 29 29 27 28 31 33 36 38 39 38 35 35 37 38 40 41 45 50 52 52 50 48 48 48 48 49 49 49 49 50 49 46 43 42 41 41 41 41 40 39 39 40 40 40 39 38 38 39 39 39 39 37 36 35 36 36 36 35 36 36 35
52 52 53 53 52 51 51 50 47 45 43 39 36 36 36 36 35 32 28 26 28 30 31 30 31 32 31 31 33 36 38 40 40 37 35 36 38 39 40 44 49 53 52 49 48 48 49 49 49 50 50 50 50 49 46 44 42 41 41 42 41 40 39 39 39 40 39 38 37 37 38 38 38 37 37 35 34 34 34 34 34 35 36 37 36
53 55 55 53 52 52 51 48 45 43 42 39 38 38 38 38 35 30 25 26 30 34 34 33 33 35 35 35 36 39 40 40 39 37 35 36 39 41 44 49 52 52 49 47 47 48 49 50 50 50 50 50 49 47 44 42 41 42 43 43 42 40 39 40 40 39 38 36 36 37 37 37 36 35 34 34 33 33 33 33 33 34 34 36 38
54 54 53 52 52 51 48 44 42 41 41 40 40 40 39 39 34 28 24 26 30 33 34 35 38 39 38 37 39 41 41 40 37 35 35 38 42 46 50 52 50 48 47 47 48 49 50 50 50 50 49 50 48 45 42 41 42 44 44 43 41 40 40 40 40 38 37 36 36 37 37 36 34 33 32 31 31 31 32 32 33 33 33 34 37
53 53 54 55 52 47 43 42 41 40 40 40 41 42 41 37 32 28 26 27 29 32 36 41 44 42 39 40 42 42 42 39 35 34 37 43 48 51 51 49 47 47 48 48 49 50 50 50 50 49 49 49 47 44 41 42 44 45 44 42 40 39 40 40 40 38 37 36 36 37 36 34 33 32 30 29 29 29 31 31 31 32 32 32 35
55 55 54 51 45 40 39 40 40 40 40 41 42 42 38 33 32 32 32 29 29 34 40 43 43 41 42 44 45 43 40 37 34 38 45 49 51 50 48 46 46 47 47 48 49 50 50 49 49 48 49 48 45 42 41 43 45 45 43 41 40 40 40 40 40 39 38 37 37 37 35 33 32 31 29 28 28 29 30 30 30 30 31 32 34
52 49 43 39 37 37 38 40 41 41 40 40 41 38 34 33 35 35 34 33 35 38 41 42 42 43 46 45 42 38 36 36 39 45 49 49 49 48 45 44 45 45 47 49 50 50 50 49 48 48 48 45 42 40 41 43 45 44 42 41 40 39 38 39 39 38 37 37 37 36 34 33 31 30 28 26 27 29 29 29 29 29 31 32 33
43 37 34 35 36 38 39 40 41 40 39 39 39 38 36 37 38 37 38 40 41 39 39 42 44 44 43 39 35 35 38 42 46 48 47 47 47 44 41 41 43 46 48 50 51 51 49 48 47 47 45 42 40 40 42 43 43 42 40 40 39 38 37 38 38 37 36 36 36 35 33 31 30 28 26 26 27 29 29 28 28 29 30 32 33
38 35 35 36 38 39 40 41 40 39 38 38 37 37 39 40 40 40 41 41 38 36 38 42 42 39 36 35 36 40 45 47 47 46 46 45 42 38 39 43 46 48 49 50 50 50 47 46 45 43 41 40 39 40 41 42 41 40 39 39 38 37 36 36 36 36 35 35 35 33 30 29 27 25 24 26 27 28 28 27 27 28 30 32 33
39 38 38 38 39 39 40 41 40 39 38 37 38 40 41 40 37 36 35 34 33 33 35 37 37 36 38 40 43 46 47 47 47 46 44 40 37 39 43 47 48 48 49 49 49 47 45 43 42 40 39 39 39 40 41 40 40 39 38 38 37 35 35 35 35 35 35 34 33 30 27 26 25 24 24 26 27 28 27 27 27 28 30 32 34
39 38 38 38 38 39 41 42 42 42 40 39 39 39 38 36 35 35 34 33 33 33 33 35 38 41 44 47 47 47 47 46 45 42 39 37 40 45 48 48 48 48 49 48 47 44 42 41 39 38 38 38 39 40 39 39 38 38 37 36 36 35 34 34 34 34 34 34 32 28 25 24 23 23 24 25 26 27 26 26 27 27 29 31 33
38 38 38 39 40 41 41 40 39 39 38 36 35 35 36 38 40 40 37 34 35 37 39 41 44 46 47 47 47 46 45 42 40 40 40 42 46 49 49 48 48 48 48 46 44 42 40 39 38 38 38 38 39 39 38 38 37 36 36 35 35 34 34 33 34 34 34 32 30 27 25 23 23 23 24 24 25 25 25 25 27 28 29 31 32
39 38 39 41 41 40 38 35 33 31 30 31 35 39 41 42 43 41 38 37 40 43 45 45 46 45 45 45 45 43 41 39 39 41 44 47 49 50 49 48 48 47 45 43 41 39 38 37 37 37 37 38 38 38 37 36 36 35 35 35 34 34 33 33 33 34 32 30 28 26 24 23 22 22 23 23 23 23 24 24 26 27 29 30 31
39 39 40 41 40 39 39 38 37 36 36 39 42 43 42 41 40 40 40 41 43 44 45 45 44 44 44 44 43 41 39 40 42 45 47 48 49 48 48 47 46 44 42 39 38 37 37 36 36 36 37 37 37 36 35 35 35 34 34 34 34 33 32 31 31 31 29 27 25 24 23 22 21 21 22 22 22 22 22 23 25 26 27 28 30
40 40 41 41 41 42 43 44 44 44 45 45 44 42 41 40 39 39 41 42 43 44 44 43 42 42 43 43 42 41 41 43 45 46 47 48 48 47 46 45 43 40 38 36 36 35 34 34 35 35 36 35 35 34 34 33 33 33 33 33 33 31 29 28 28 27 26 25 23 22 21 20 20 20 21 21 21 21 22 23 24 26 26 27 28
41 41 42 43 44 45 46 46 47 47 47 46 45 43 42 41 40 41 42 43 43 42 40 39 39 41 42 43 43 43 43 44 46 47 48 48 47 46 44 42 39 37 35 34 33 33 33 33 34 35 34 34 33 32 32 32 32 32 32 32 30 28 26 25 25 24 23 23 21 20 20 20 19 19 19 20 20 21 22 23 24 25 25 26 26
43 44 45 46 46 46 46 46 46 45 45 44 43 42 41 41 42 43 43 42 41 39 39 39 41 41 41 42 42 43 43 45 47 47 47 46 45 43 41 38 35 33 32 32 32 32 33 34 34 33 33 32 31 31 31 31 31 30 30 29 27 25 23 22 22 22 21 21 20 20 19 19 19 19 19 19 19 20 21 22 23 23 24 25 25
46 46 46 46 46 45 45 44 43 42 41 41 41 41 42 43 43 43 42 41 40 40 41 42 42 41 41 41 42 43 44 45 46 45 44 43 42 39 36 33 31 31 31 32 32 33 33 33 33 32 31 31 31 31 31 30 30 29 28 27 26 24 22 21 21 21 21 20 20 19 19 18 18 18 18 19 19 19 20 21 22 22 23 23 24
46 46 45 44 43 43 43 41 40 39 40 41 42 43 43 43 43 42 41 41 41 42 42 42 41 40 40 41 42 43 43 43 43 42 41 39 37 34 31 30 31 31 32 33 33 33 33 32 31 31 30 30 30 30 30 30 29 28 27 26 26 24 23 22 22 22 21 21 20 19 19 18 18 18 18 19 19 19 20 21 21 22 22 22 22
45 45 45 43 43 42 41 40 39 41 43 43 43 42 42 42 41 41 41 41 42 42 41 41 41 41 41 41 41 41 41 41 40 39 36 34 31 30 30 31 32 33 34 34 34 33 31 31 30 29 28 29 29 30 29 29 28 27 26 26 25 24 24 23 23 23 23 22 21 20 19 19 18 18 19 19 20 20 20 20 20 21 21 21 21
46 47 47 46 45 43 42 43 44 45 45 43 42 42 41 40 40 40 41 42 42 41 40 40 40 40 40 39 39 39 39 38 36 33 32 31 31 31 32 33 34 34 34 34 33 32 31 30 29 28 27 28 28 29 29 28 27 26 26 25 25 24 23 23 23 23 22 21 20 20 20 19 19 19 19 19 20 19 19 20 19 19 19 19 19
46 47 47 47 46 46 46 46 46 46 44 43 42 41 39 39 40 41 42 41 40 39 39 40 39 39 38 37 37 36 34 33 31 30 31 32 33 34 34 35 35 35 34 34 33 32 31 30 29 28 27 27 27 28 28 27 26 25 24 24 23 23 22 21 21 21 21 20 19 19 20 20 20 19 19 19 19 19 18 19 18 17 17 18 18
46 46 46 47 47 47 46 45 43 42 41 40 38 37 38 39 40 40 40 39 39 39 39 38 37 36 35 34 33 31 29 29 30 31 33 34 34 34 34 35 35 34 34 33 33 31 30 29 28 27 26 27 27 27 27 26 26 24 23 23 22 21 21 20 20 20 20 20 19 19 19 20 20 20 20 19 19 19 19 18 18 17 17 16 16
45 45 45 46 46 45 44 42 40 40 39 38 37 38 38 39 39 39 39 38 38 37 36 35 33 33 31 30 28 27 28 29 31 33 34 34 34 34 33 33 33 33 33 32 31 30 29 28 27 26 26 25 25 25 25 25 24 23 22 22 21 20 20 20 19 20 20 20 19 19 19 19 20 20 20 20 20 20 19 18 18 17 16 16 16
43 42 43 43 41 39 38 39 39 39 39 38 38 39 39 38 37 36 36 35 34 33 32 31 31 29 28 26 26 28 29 31 32 33 34 34 33 32 32 32 32 32 31 30 29 29 28 28 27 26 25 24 24 24 23 23 23 22 22 21 20 20 20 19 19 19 20 20 20 19 19 19 19 19 20 20 19 19 19 19 18 17 16 15 15
38 36 35 34 32 31 32 33 35 35 36 38 39 40 39 37 35 33 31 31 30 30 30 29 28 26 26 27 28 29 31 32 33 33 33 32 31 31 30 30 30 30 30 29 28 27 27 27 26 25 24 23 23 22 22 22 22 21 21 21 21 20 20 20 20 20 20 20 21 20 20 20 19 20 20 20 19 19 19 19 18 17 17 15 14
36 33 30 29 28 28 29 31 32 34 36 37 38 37 36 34 32 30 29 28 28 28 27 27 26 26 27 28 29 30 31 32 31 30 29 29 28 29 29 29 29 29 29 27 26 25 25 25 24 23 22 22 22 22 22 22 22 21 21 21 21 21 21 21 20 20 20 21 21 21 21 21 21 21 21 20 20 19 19 18 18 17 17 16 15
37 36 36 35 35 34 33 35 36 36 35 34 32 32 30 29 28 27 27 27 27 26 26 26 27 27 28 28 29 30 29 28 26 26 26 26 27 28 28 27 27 28 28 27 25 24 23 23 23 22 21 21 21 22 22 21 21 21 21 21 21 21 21 21 21 21 21 21 22 22 22 22 22 22 22 22 21 20 20 19 18 18 17 16 15
34 36 38 38 38 37 37 37 36 34 32 30 28 28 27 27 27 27 26 26 26 25 26 26 26 27 27 28 28 26 24 23 22 23 24 25 26 26 26 24 24 26 27 26 24 23 23 23 22 22 22 22 22 22 22 22 22 22 22 22 21 21 21 22 22 22 22 23 23 23 23 23 23 23 23 23 22 21 20 19 19 18 17 16 15
31 33 34 35 35 35 34 33 32 31 29 29 28 27 27 27 27 26 26 25 25 25 26 26 26 26 27 26 23 21 20 20 21 22 22 23 23 23 22 21 21 23 25 26 24 23 23 23 23 23 23 23 23 22 22 22 22 22 22 22 22 22 22 23 23 23 23 23 23 23 23 23 23 23 23 22 22 22 21 20 19 18 17 17 16
26 28 29 29 29 29 28 28 27 27 26 26 26 26 26 25 25 24 24 25 25 25 26 26 26 26 24 21 19 18 19 20 20 20 21 21 21 21 20 19 19 21 23 24 24 23 22 23 23 23 23 23 23 23 22 22 22 22 22 23 23 23 23 23 23 23 23 22 22 22 21 21 21 21 21 20 20 20 20 19 18 17 17 16 16
22 23 23 24 24 24 24 24 23 23 23 23 23 23 23 23 23 24 24 25 25 25 26 26 24 22 20 18 18 18 19 19 19 20 20 20 20 20 20 19 19 19 20 21 21 21 21 21 22 22 22 22 22 22 21 22 22 22 23 23 23 23 23 22 22 21 21 20 18 17 17 16 16 17 16 16 16 17 17 17 17 16 16 16 15
Wind_Direction
273 279 285 290 293 295 295 295 297 296 295 292 289 289 290 290 291 292 294 296 298 300 302 303 304 304 305 306 303 300 302 306 306 307 310 311 311 311 311 312 312 314 319 322 322 322 321 319 317 317 319 319 319 318 315 311 307 304 301 299 299 298 295 295 296 296 296 298 299 301 302 303 302 300 300 299 299 297 295 292 290 287 284 281 279
273 282 288 292 294 292 291 293 294 290 289 287 285 287 288 289 291 292 292 293 296 299 301 302 301 301 303 304 302 299 301 304 305 305 307 308 308 308 309 310 309 310 316 322 325 326 325 322 318 316 315 314 313 312 310 307 304 303 302 300 300 298 295 294 294 295 296 297 297 299 300 301 300 298 298 298 297 296 293 291 289 287 285 281 278
277 283 288 291 293 291 286 284 282 280 283 285 283 283 286 289 290 290 288 289 291 295 299 300 298 298 300 301 299 298 299 302 302 302 304 305 305 306 306 307 306 305 310 318 324 326 325 323 321 318 314 312 310 308 305 303 301 301 301 300 299 298 296 294 292 293 295 296 296 296 298 299 299 297 296 296 296 294 292 289 287 286 283 281 278
283 286 289 292 291 286 282 280 277 277 284 288 284 280 280 284 287 287 285 286 288 291 293 293 291 293 296 296 295 295 296 298 300 301 304 305 304 305 305 306 304 302 304 311 317 322 324 324 323 321 318 314 311 307 302 298 297 298 299 299 298 297 295 293 291 291 294 296 296 296 297 297 297 296 295 295 295 294 291 288 285 283 281 280 278
290 291 293 291 284 283 287 289 286 283 283 283 282 280 277 277 279 282 283 282 284 286 286 287 287 289 292 292 293 294 292 293 297 300 303 304 304 304 306 306 305 303 302 304 309 316 321 322 322 321 319 316 313 308 301 296 294 295 296 297 296 295 294 292 291 291 292 295 297 298 297 296 296 295 293 293 295 294 291 287 284 281 279 278 276
291 290 288 285 285 294 304 303 296 292 286 279 278 279 277 276 277 280 281 279 280 284 284 286 288 288 288 289 291 292 289 289 293 295 299 302 303 304 305 305 305 304 302 302 303 308 316 318 319 320 319 316 313 309 302 295 292 292 293 294 294 294 293 292 291 291 292 293 295 296 296 295 293 292 292 293 294 293 289 285 284 281 278 276 275
288 285 285 287 296 311 318 313 307 304 297 289 284 281 279 281 283 282 280 278 281 284 285 286 288 286 286 287 290 290 287 286 289 292 296 300 302 304 304 304 304 303 302 301 301 305 312 316 317 318 318 316 313 309 301 294 290 289 291 293 295 294 293 292 291 291 291 292 293 294 294 292 291 291 292 294 294 292 288 285 282 279 277 276 275
287 288 290 296 306 317 320 314 308 303 298 297 298 293 289 289 288 284 282 282 283 282 282 285 285 283 284 286 288 288 286 285 287 292 296 300 303 304 304 304 303 303 302 300 301 306 312 314 316 318 318 316 313 308 301 295 290 287 289 293 295 294 292 291 291 291 291 292 293 294 293 292 292 292 293 294 294 291 288 286 283 279 277 275 273
293 294 297 302 309 316 318 313 305 297 292 295 302 305 303 299 291 287 287 289 287 283 282 283 283 281 281 283 285 287 286 284 287 292 295 299 302 303 303 302 301 300 299 300 304 309 312 314 316 318 317 315 313 309 303 298 293 288 288 291 294 294 292 291 291 291 292 293 294 293 292 293 293 293 295 295 293 290 288 286 285 282 279 275 273
297 296 299 304 309 314 316 315 310 302 297 299 303 303 305 305 302 299 297 295 292 289 286 284 282 281 279 281 285 285 284 284 288 291 293 296 300 301 300 300 298 298 298 302 307 310 312 315 317 317 316 314 313 311 306 299 293 289 288 290 292 293 293 292 292 293 294 294 294 292 291 293 294 295 296 294 291 288 287 285 284 282 280 277 274
298 297 300 304 308 311 312 316 318 314 311 312 307 301 302 308 309 307 304 299 295 293 291 286 282 279 277 282 287 284 281 285 289 291 293 294 297 298 298 297 296 295 298 303 307 310 312 315 316 317 316 313 312 311 307 300 295 291 290 290 291 293 294 294 294 294 295 297 295 292 292 293 294 295 295 293 290 288 287 286 284 282 280 278 275
298 299 302 304 306 308 310 315 318 317 316 315 308 301 306 312 310 306 304 301 298 296 294 288 283 281 278 283 288 283 282 287 291 291 292 292 293 295 296 295 293 294 299 303 307 309 312 315 317 317 314 311 310 308 304 300 295 291 290 289 290 292 294 295 296 297 300 300 296 293 294 294 294 295 294 292 290 289 288 287 285 282 280 279 276
298 299 301 303 304 307 311 315 314 314 315 314 308 305 309 313 311 307 306 305 302 298 293 288 287 286 282 282 285 284 285 290 292 291 291 290 291 293 294 293 292 295 301 304 306 309 312 316 317 313 309 309 308 304 303 302 298 294 292 290 290 293 296 296 297 301 304 301 296 293 294 294 294 295 294 292 290 289 288 286 284 282 281 280 278
297 297 300 302 303 306 310 312 312 313 314 312 309 307 307 310 310 307 308 309 305 299 293 288 288 289 285 284 286 287 290 292 293 292 291 290 290 291 291 290 291 296 301 304 306 309 313 315 312 308 308 309 307 303 303 304 302 301 299 294 292 295 297 297 299 303 304 300 295 292 292 293 295 295 293 291 290 289 288 285 282 282 281 280 279
296 297 299 302 304 306 309 311 312 312 309 306 306 304 303 306 307 306 307 307 303 299 290 280 282 287 287 287 290 291 293 294 294 293 292 290 289 290 289 287 289 295 301 303 306 310 313 310 306 306 309 309 306 305 305 304 302 301 300 297 295 297 299 299 300 302 303 299 295 292 292 294 295 294 291 290 290 291 290 286 283 283 283 281 280
295 297 300 303 306 307 310 311 310 307 304 304 305 301 299 303 305 304 303 303 301 295 281 269 274 283 285 288 292 294 295 296 296 295 292 290 288 288 287 286 288 295 299 301 305 309 310 306 305 307 307 305 306 308 307 306 305 303 300 299 298 299 300 300 301 302 301 298 296 295 295 296 295 292 290 290 291 293 292 287 286 287 286 283 282
295 298 301 304 306 307 310 309 306 304 304 305 304 299 297 302 305 302 300 300 298 289 275 268 271 276 280 287 294 297 299 299 298 295 292 289 288 287 286 287 291 296 300 302 305 308 307 305 306 306 303 304 308 308 308 308 305 301 298 298 298 300 300 300 301 301 299 297 297 297 297 295 293 291 291 291 293 295 292 288 287 289 287 284 283
297 301 303 304 305 306 307 307 305 304 303 301 300 298 297 301 305 303 298 297 293 283 274 270 267 269 276 285 293 299 301 302 299 296 292 289 288 287 287 289 293 297 301 303 305 307 306 306 307 305 303 306 308 308 308 308 302 296 296 296 298 300 300 301 302 301 299 298 297 297 296 293 292 291 292 293 295 295 293 289 289 290 288 285 284
298 301 302 303 304 305 306 306 304 302 302 301 300 300 300 301 305 303 298 295 290 280 273 268 263 265 274 286 295 300 302 302 300 297 292 288 286 286 286 291 296 299 302 304 305 305 305 305 307 305 305 307 307 307 307 306 302 299 298 299 301 302 302 303 303 301 299 298 298 297 296 293 291 291 293 295 296 295 294 293 294 293 289 287 286
298 299 300 301 302 302 304 305 302 299 300 301 301 301 301 301 304 304 297 289 282 275 271 265 260 262 273 288 296 301 303 303 300 296 291 287 285 285 288 293 298 301 303 304 304 303 304 305 306 305 305 305 305 306 306 304 302 301 300 301 304 305 304 305 304 303 301 300 299 298 296 294 293 293 295 296 295 294 295 296 296 295 292 290 290
298 299 299 299 299 301 303 303 299 297 299 301 302 302 301 301 305 304 294 281 275 273 273 268 260 262 273 288 296 300 303 303 299 294 291 288 287 287 290 296 300 302 302 303 302 302 304 304 305 304 304 304 305 305 304 301 300 299 299 302 305 306 306 306 306 306 304 301 298 296 295 294 294 295 295 295 294 295 297 298 297 296 295 295 295
298 299 298 296 297 300 301 299 295 294 297 299 301 301 300 301 304 303 291 279 275 274 272 266 262 265 271 282 293 297 300 301 298 293 291 289 288 290 295 299 301 302 302 302 302 302 303 303 303 303 303 304 304 303 301 299 297 297 298 300 302 305 307 307 308 308 305 301 297 295 295 296 295 295 294 293 294 296 298 299 300 299 299 299 300
298 297 294 293 295 297 296 293 292 293 296 297 298 299 298 300 301 299 291 282 278 277 273 269 271 273 272 278 289 294 298 300 295 288 288 289 291 296 300 301 302 301 301 301 301 301 301 301 302 302 303 303 303 301 298 296 296 297 298 299 300 303 306 308 308 307 304 301 297 296 297 297 296 294 292 291 293 297 300 302 302 301 300 302 305
297 294 291 290 292 292 289 288 289 292 294 295 296 297 296 297 297 295 293 288 282 281 280 278 279 277 273 276 286 291 296 297 289 284 289 294 297 300 301 301 301 300 301 301 300 300 300 300 301 302 302 302 301 298 296 296 297 299 300 298 298 302 305 307 307 306 303 300 297 297 297 297 296 293 291 291 293 298 301 303 302 301 301 304 307
294 292 290 289 287 285 284 286 287 290 292 293 295 295 293 293 295 295 294 290 284 281 281 280 280 276 271 275 283 290 293 290 286 291 297 299 300 301 300 299 300 299 299 299 299 299 300 300 301 302 301 300 299 297 296 297 299 300 299 297 298 301 304 306 306 305 302 299 297 296 296 297 296 293 291 292 295 299 302 303 302 302 303 306 309
290 290 287 284 282 281 282 284 286 288 290 291 293 293 291 293 295 292 289 288 286 285 283 279 277 274 272 276 284 289 289 290 294 299 301 300 300 300 298 298 298 298 299 299 299 299 300 301 301 300 299 299 297 295 296 298 299 299 299 298 299 301 302 304 305 303 301 299 298 297 296 296 295 292 291 294 298 300 303 304 304 304 305 308 309
284 283 281 280 279 280 282 283 284 286 286 287 289 289 290 292 292 290 290 291 291 292 290 284 281 280 278 281 287 290 292 296 300 301 300 300 299 297 296 297 299 299 300 299 299 299 300 300 300 299 298 297 295 294 296 297 298 298 299 299 300 301 301 303 303 302 301 301 301 299 297 295 293 291 293 297 300 301 303 305 306 306 307 309 310
277 278 278 279 280 282 282 282 282 283 284 286 287 287 289 291 290 292 295 294 293 294 291 287 286 285 284 286 291 293 296 299 300 300 300 298 295 294 296 299 300 300 299 299 299 300 300 300 299 297 296 295 294 294 297 298 298 298 299 300 301 301 301 302 302 301 301 304 305 302 298 295 292 291 295 298 300 302 304 306 308 309 310 312 314
278 279 280 281 282 282 281 281 282 284 286 288 287 288 289 289 290 295 297 294 291 291 288 285 284 285 286 289 293 295 298 299 299 299 297 293 292 295 298 300 300 300 299 299 300 300 300 299 297 295 294 294 294 296 297 298 298 299 300 302 302 301 301 301 300 299 300 303 306 303 297 294 291 291 295 298 300 302 305 307 310 311 313 316 319
281 281 281 281 281 281 282 284 285 285 285 285 286 287 287 287 290 295 296 291 287 285 284 284 285 287 289 292 293 295 297 298 297 294 290 288 291 296 299 300 301 300 300 300 301 301 299 297 295 294 294 294 295 297 298 298 299 300 301 302 301 301 300 300 299 298 298 301 304 303 298 294 292 292 296 299 300 303 306 309 312 314 316 319 322
280 280 281 281 280 281 285 289 288 284 281 282 285 287 287 288 291 294 293 288 284 282 283 285 288 289 290 291 292 294 295 294 292 289 286 288 293 297 299 301 301 301 301 302 302 300 297 296 295 294 295 295 296 298 298 299 300 301 301 301 301 300 299 298 298 297 298 300 301 300 297 295 293 293 296 298 300 302 306 311 314 316 318 321 325
277 279 280 281 282 283 286 288 289 286 283 285 289 291 290 291 292 291 288 284 283 283 284 286 288 288 289 290 292 293 292 291 290 289 290 292 295 298 299 300 301 302 303 302 300 298 296 295 294 295 296 297 298 298 299 300 301 302 301 301 300 299 298 297 297 297 298 300 299 295 293 293 293 294 296 297 300 303 308 313 315 317 319 323 328
276 278 279 281 284 286 286 286 286 284 284 287 290 291 291 291 289 287 285 283 283 284 285 287 287 287 287 289 291 292 291 290 292 293 293 295 297 299 300 301 302 303 303 301 298 297 295 294 294 295 297 298 299 299 300 301 302 302 302 300 299 297 296 296 297 297 299 300 297 294 292 292 293 295 296 298 301 304 309 313 315 316 320 325 330
275 276 277 278 280 282 284 286 287 287 288 290 292 292 291 290 287 285 285 285 285 286 287 287 287 287 289 291 292 292 292 291 293 294 296 297 298 300 300 301 302 303 302 300 298 296 295 295 296 297 298 299 299 299 300 301 302 302 302 300 298 296 295 296 296 297 299 299 297 295 294 293 293 295 295 298 302 305 309 313 314 315 321 326 331
276 277 278 278 279 280 282 284 286 287 289 291 291 291 289 288 287 287 287 287 287 287 287 288 289 290 290 292 292 292 292 292 294 295 296 297 299 300 301 302 303 302 301 299 298 297 296 296 297 298 298 298 298 298 299 301 302 302 302 301 299 296 295 295 295 297 299 299 297 296 295 294 294 294 294 298 303 306 308 311 313 315 321 326 332
277 279 280 281 282 284 284 285 286 287 288 288 288 288 287 287 288 289 289 289 288 289 290 291 292 292 291 291 291 291 292 293 294 295 296 297 299 300 301 301 301 300 299 298 297 296 296 296 297 298 298 298 297 298 299 301 301 300 300 300 300 298 295 294 294 296 299 299 298 297 295 294 293 294 294 297 301 303 305 308 311 315 320 325 331
279 280 282 284 285 286 287 287 287 287 287 287 287 286 286 287 288 289 288 288 289 290 292 293 293 292 291 290 291 291 292 293 294 295 296 297 298 299 299 299 298 297 296 295 295 295 296 298 298 298 298 297 296 297 298 299 299 297 297 298 298 298 296 293 293 295 298 299 298 295 294 293 293 294 295 298 300 302 303 306 310 314 319 324 330
281 282 283 284 285 286 286 284 283 285 287 287 286 286 286 286 287 286 286 287 288 290 291 291 291 290 290 290 290 291 291 293 294 295 296 296 297 297 297 296 295 295 294 294 295 296 297 298 297 296 295 294 294 294 296 297 297 296 296 296 296 296 295 292 290 291 294 295 295 294 293 293 294 294 295 297 300 302 303 306 310 313 318 323 330
283 284 284 285 286 287 284 281 282 285 287 287 286 285 286 286 287 287 287 288 289 289 289 289 289 289 290 290 291 292 293 294 294 295 295 295 295 295 294 294 294 293 293 294 295 296 296 296 294 293 292 291 292 294 296 297 298 297 297 296 297 296 294 292 291 291 291 292 291 291 291 291 293 294 296 297 299 301 303 305 308 312 317 323 330
283 285 286 287 288 287 285 283 284 286 286 286 287 288 289 289 288 288 288 288 288 288 288 289 290 290 291 291 292 293 293 293 293 293 294 294 294 294 294 293 293 293 294 295 295 296 296 295 294 293 292 292 293 295 297 298 298 297 297 297 297 296 295 294 294 294 294 293 290 289 289 290 291 293 294 296 298 300 302 304 306 310 316 322 328
285 287 288 288 288 286 285 284 285 285 286 287 288 289 289 288 288 288 288 287 287 288 289 290 291 291 291 292 293 293 292 291 292 293 294 294 294 294 294 295 295 295 296 296 297 297 297 297 296 295 294 294 294 296 297 297 296 295 295 295 295 295 295 295 295 296 298 296 293 289 288 288 290 291 293 294 296 298 301 303 305 309 314 319 325
285 286 285 284 283 283 282 282 282 284 286 288 288 288 287 287 286 287 287 287 288 289 290 290 290 291 292 293 292 290 289 290 292 293 294 295 295 295 296 296 296 296 296 297 297 298 298 298 297 296 294 294 295 295 295 294 293 293 293 292 292 292 293 294 294 296 297 298 295 292 289 288 288 290 291 292 295 297 300 302 304 307 312 317 322
283 283 282 281 280 279 278 278 280 284 286 286 286 287 287 288 288 288 288 288 288 288 288 289 290 291 291 290 288 287 289 291 293 294 295 295 296 296 297 297 296 296 296 297 297 298 298 298 297 295 293 292 292 292 292 292 291 291 291 291 291 290 290 291 292 293 293 294 294 292 291 289 289 289 290 291 292 294 296 298 301 304 308 313 318
281 281 280 279 278 277 277 278 280 283 284 285 286 289 290 291 290 289 288 287 287 287 287 288 289 289 288 287 287 289 291 293 294 295 295 295 296 297 297 297 297 297 297 297 298 298 298 298 296 294 292 291 290 291 291 291 290 291 291 290 290 289 289 289 289 289 289 290 291 291 291 291 291 291 292 292 292 292 293 295 296 299 302 306 312
278 277 277 277 278 280 280 280 280 282 284 286 288 289 290 289 287 286 286 285 285 286 286 286 286 286 286 287 288 290 292 294 294 295 296 297 298 298 298 297 297 297 297 298 298 298 298 297 296 295 294 293 292 292 292 291 291 290 290 289 289 288 288 287 287 287 287 288 289 290 290 290 291 291 291 292 292 292 293 293 292 294 296 300 304
271 272 275 279 283 283 281 281 284 286 287 287 286 286 286 285 284 284 284 284 284 284 284 284 285 286 287 289 290 292 294 295 296 297 298 299 300 299 298 298 297 296 296 296 296 296 296 296 295 295 295 294 293 293 292 291 291 290 289 289 289 288 287 287 286 286 286 287 287 288 289 289 289 289 289 290 291 291 291 291 291 290 292 295 298
270 270 273 278 281 282 281 283 286 288 287 286 284 283 282 281 281 282 282 282 282 282 283 284 285 287 289 291 293 294 295 296 297 299 300 300 300 299 297 296 294 293 293 293 293 294 294 293 294 295 294 293 293 292 291 291 290 290 289 289 288 287 287 287 287 286 286 286 286 286 287 287 287 287 287 288 288 289 289 290 289 289 288 290 292
271 271 274 278 281 283 283 285 286 287 286 284 283 282 282 282 282 281 281 281 281 282 284 286 287 289 291 292 293 294 295 296 298 300 302 303 302 301 298 293 288 286 287 289 289 289 290 290 291 292 292 292 291 291 291 290 290 290 289 288 288 288 288 288 288 287 287 286 286 285 285 285 285 285 284 284 285 286 287 287 286 286 285 286 287
273 273 275 278 280 282 283 285 286 287 287 286 285 284 283 282 281 280 279 280 282 284 286 287 288 289 290 291 291 292 293 296 299 303 307 309 309 307 302 293 284 279 281 284 287 288 288 288 288 289 289 290 290 290 290 290 289 289 289 289 289 289 289 289 288 287 286 286 285 284 284 284 284 283 282 282 282 282 283 283 282 282 281 281 282
275 275 276 277 279 280 281 283 284 285 286 286 285 283 281 279 278 278 279 281 284 285 287 287 288 289 289 288 289 290 293 297 302 307 312 316 317 316 309 299 288 280 279 282 286 288 288 287 287 287 287 288 288 289 289 289 289 290 290 290 291 291 290 289 287 286 285 285 285 284 284 284 282 281 280 278 277 277 278 277 277 277 276 276 277
278 277 277 276 276 277 278 279 280 281 282 283 282 280 279 278 278 280 282 283 284 285 286 287 287 286 285 285 287 290 294 299 304 310 315 319 322 321 317 311 302 292 286 285 287 289 289 288 288 287 287 287 287 288 288 289 290 291 292 292 291 290 289 287 285 284 284 283 284 284 284 283 281 280 279 277 275 273 273 273 273 272 271 271 271
Height
5895 5895 5894 5894 5893 5892 5892 5891 5891 5890 5889 5888 5888 5887 5886 5885 5885 5885 5884 5884 5884 5883 5882 5881 5879 5878 5878 5877 5876 5875 5874 5873 5872 5871 5870 5869 5868 5867 5865 5864 5862 5860 5859 5857 5855 5852 5850 5848 5847 5846 5845 5843 5841 5839 5837 5836 5834 5832 5830 5829 5828 5827 5826 5824 5823 5820 5819 5817 5815 5811 5809 5808 5806 5803 5802 5801 5799 5797 5796 5795 5794 5793 5793 5793 5792
5892 5892 5892 5891 5890 5889 5888 5888 5887 5886 5885 5884 5884 5883 5883 5882 5882 5881 5880 5880 5880 5879 5878 5877 5876 5875 5874 5874 5872 5871 5871 5870 5869 5868 5867 5866 5865 5864 5862 5860 5859 5857 5855 5854 5852 5849 5847 5845 5844 5843 5841 5839 5837 5835 5833 5832 5830 5828 5826 5825 5824 5822 5821 5820 5818 5816 5814 5813 5811 5808 5805 5803 5801 5799 5797 5796 5795 5793 5791 5790 5788 5788 5787 5787 5787
5890 5890 5889 5888 5886 5885 5884 5883 5883 5882 5882 5881 5881 5880 5879 5879 5878 5878 5877 5876 5876 5875 5874 5873 5872 5871 5871 5870 5869 5868 5867 5866 5865 5865 5864 5863 5862 5860 5859 5857 5855 5853 5852 5850 5848 5846 5844 5842 5840 5839 5837 5835 5833 5831 5829 5828 5826 5824 5822 5821 5819 5817 5816 5815 5813 5811 5810 5808 5806 5804 5801 5799 5796 5794 5792 5791 5790 5789 5787 5785 5784 5783 5781 5780 5781
5887 5887 5886 5884 5882 5879 5877 5878 5880 5881 5881 5880 5878 5877 5876 5876 5875 5874 5873 5872 5872 5872 5871 5869 5868 5868 5868 5867 5866 5865 5864 5863 5862 5861 5860 5859 5858 5856 5854 5853 5851 5849 5848 5846 5844 5843 5840 5838 5836 5835 5833 5831 5829 5827 5825 5823 5821 5820 5818 5816 5814 5812 5811 5809 5807 5806 5805 5803 5801 5799 5797 5795 5792 5789 5786 5785 5785 5784 5782 5781 5779 5778 5776 5775 5774
5884 5883 5881 5880 5878 5874 5874 5878 5880 5881 5880 5877 5874 5872 5871 5871 5871 5869 5869 5868 5868 5868 5867 5865 5865 5864 5864 5863 5862 5861 5860 5859 5858 5857 5856 5855 5853 5852 5850 5848 5847 5845 5843 5842 5840 5838 5836 5834 5832 5830 5828 5826 5824 5822 5820 5818 5817 5815 5813 5811 5809 5808 5806 5804 5802 5800 5799 5798 5796 5794 5792 5790 5787 5783 5780 5779 5779 5778 5776 5775 5774 5773 5771 5769 5768
5880 5879 5877 5875 5874 5874 5875 5877 5876 5876 5874 5870 5868 5867 5866 5866 5865 5865 5865 5865 5864 5864 5862 5861 5861 5861 5860 5859 5858 5857 5857 5856 5854 5853 5852 5850 5849 5848 5846 5845 5843 5841 5839 5837 5836 5834 5832 5830 5828 5826 5824 5822 5819 5817 5815 5813 5811 5810 5808 5806 5804 5802 5800 5798 5796 5795 5793 5792 5791 5789 5787 5785 5782 5778 5774 5773 5773 5772 5771 5770 5769 5767 5765 5764 5763
5876 5875 5873 5872 5874 5875 5874 5872 5870 5869 5866 5863 5863 5864 5863 5862 5862 5861 5861 5860 5860 5859 5858 5857 5857 5856 5855 5855 5854 5853 5852 5851 5850 5848 5847 5846 5845 5844 5842 5841 5839 5837 5835 5833 5832 5830 5828 5826 5823 5821 5819 5817 5815 5812 5810 5808 5806 5805 5803 5801 5799 5796 5794 5791 5790 5788 5786 5785 5784 5782 5780 5778 5776 5772 5769 5766 5766 5765 5764 5764 5763 5761 5759 5758 5757
5873 5872 5871 5872 5873 5872 5870 5867 5864 5863 5861 5860 5861 5861 5860 5859 5858 5857 5856 5856 5855 5855 5854 5853 5852 5851 5851 5850 5849 5849 5848 5846 5845 5844 5843 5841 5840 5839 5838 5836 5835 5833 5831 5829 5827 5826 5824 5821 5819 5816 5814 5812 5810 5807 5805 5803 5801 5799 5797 5795 5792 5790 5787 5785 5783 5781 5780 5778 5776 5775 5773 5771 5768 5766 5763 5761 5759 5758 5757 5757 5757 5756 5754 5753 5752
5871 5870 5870 5869 5869 5868 5866 5862 5856 5856 5858 5859 5859 5858 5857 5855 5854 5853 5852 5851 5850 5849 5849 5848 5847 5846 5846 5845 5845 5844 5843 5842 5841 5840 5838 5837 5836 5834 5833 5832 5830 5828 5827 5825 5823 5821 5818 5816 5813 5811 5809 5807 5804 5801 5799 5798 5796 5793 5791 5788 5786 5783 5781 5779 5777 5775 5773 5772 5770 5767 5765 5763 5760 5758 5757 5754 5752 5751 5750 5749 5749 5749 5747 5747 5746
5869 5868 5867 5867 5865 5864 5863 5858 5853 5853 5856 5857 5855 5854 5853 5852 5850 5849 5848 5847 5845 5844 5844 5843 5842 5841 5841 5841 5840 5839 5838 5837 5836 5835 5834 5833 5831 5830 5829 5827 5826 5824 5822 5820 5818 5816 5813 5810 5808 5806 5804 5801 5798 5796 5794 5792 5790 5787 5785 5782 5779 5777 5775 5773 5771 5769 5767 5765 5763 5760 5758 5756 5753 5751 5750 5748 5746 5745 5744 5742 5742 5741 5740 5740 5739
5867 5866 5865 5864 5862 5860 5858 5855 5853 5853 5854 5854 5852 5851 5850 5848 5846 5844 5843 5842 5840 5840 5839 5838 5838 5837 5837 5837 5836 5835 5834 5833 5832 5831 5829 5828 5827 5826 5825 5823 5821 5819 5817 5815 5813 5810 5807 5805 5803 5801 5798 5795 5793 5791 5788 5786 5784 5782 5779 5776 5774 5772 5770 5768 5766 5763 5761 5759 5757 5754 5751 5749 5746 5744 5743 5741 5739 5738 5737 5735 5734 5734 5733 5732 5732
5864 5863 5862 5861 5859 5856 5854 5853 5851 5849 5849 5849 5849 5848 5846 5845 5842 5840 5839 5837 5835 5835 5834 5833 5833 5833 5833 5832 5832 5831 5830 5829 5827 5825 5824 5823 5822 5821 5821 5819 5816 5814 5812 5810 5807 5804 5802 5800 5798 5796 5793 5790 5787 5785 5782 5780 5778 5775 5773 5770 5768 5766 5764 5762 5760 5758 5755 5754 5750 5747 5744 5742 5740 5738 5736 5734 5733 5731 5730 5728 5727 5727 5726 5725 5725
5861 5860 5858 5857 5855 5853 5851 5849 5846 5844 5844 5844 5844 5843 5842 5840 5838 5836 5834 5832 5831 5830 5829 5829 5829 5828 5828 5828 5827 5826 5825 5824 5822 5820 5819 5818 5817 5816 5816 5814 5811 5809 5806 5804 5802 5799 5796 5794 5792 5790 5787 5784 5781 5779 5776 5774 5771 5769 5766 5764 5762 5760 5759 5757 5754 5752 5750 5747 5744 5740 5737 5735 5733 5732 5730 5729 5727 5725 5724 5723 5721 5720 5719 5718 5718
5857 5856 5855 5853 5851 5849 5847 5845 5842 5841 5840 5839 5839 5838 5837 5835 5833 5831 5829 5827 5826 5825 5824 5824 5824 5823 5823 5822 5822 5822 5821 5819 5817 5816 5815 5813 5812 5811 5810 5808 5806 5804 5801 5799 5796 5793 5791 5789 5787 5784 5782 5778 5775 5772 5771 5768 5765 5762 5760 5758 5756 5754 5753 5750 5748 5745 5743 5740 5738 5734 5731 5728 5727 5726 5724 5722 5721 5719 5717 5717 5715 5714 5713 5713 5711
5852 5851 5850 5849 5847 5845 5843 5840 5838 5836 5836 5835 5835 5834 5832 5831 5829 5826 5825 5823 5821 5820 5819 5819 5820 5819 5818 5818 5817 5817 5816 5815 5813 5811 5810 5808 5806 5806 5804 5802 5801 5799 5797 5794 5791 5789 5787 5784 5781 5779 5775 5772 5769 5766 5764 5762 5759 5756 5754 5752 5750 5748 5746 5743 5741 5739 5736 5733 5730 5728 5725 5722 5721 5720 5718 5715 5714 5712 5711 5710 5708 5707 5707 5707 5706
5847 5846 5844 5843 5841 5839 5838 5836 5832 5831 5831 5830 5830 5829 5827 5826 5824 5822 5820 5818 5816 5815 5815 5815 5815 5815 5814 5814 5813 5812 5811 5810 5808 5806 5804 5803 5801 5800 5799 5797 5796 5794 5791 5788 5786 5784 5781 5777 5775 5773 5769 5765 5763 5760 5758 5756 5753 5750 5748 5745 5744 5742 5739 5736 5734 5732 5729 5725 5723 5721 5718 5716 5715 5713 5711 5709 5707 5706 5705 5703 5702 5700 5700 5700 5699
5842 5841 5839 5838 5836 5834 5832 5830 5827 5826 5826 5825 5824 5823 5821 5821 5820 5818 5816 5813 5811 5810 5810 5810 5811 5811 5810 5810 5809 5808 5806 5805 5803 5801 5799 5797 5795 5794 5793 5792 5790 5788 5785 5782 5781 5779 5775 5771 5768 5766 5762 5759 5757 5754 5751 5750 5748 5745 5742 5740 5738 5736 5733 5730 5728 5725 5722 5719 5716 5714 5712 5710 5709 5707 5705 5703 5701 5699 5698 5697 5696 5695 5693 5693 5692
5837 5836 5834 5832 5830 5828 5827 5824 5821 5821 5821 5819 5817 5817 5816 5815 5814 5812 5810 5808 5806 5805 5805 5806 5806 5806 5806 5805 5804 5803 5801 5799 5797 5795 5793 5791 5790 5789 5788 5787 5785 5782 5779 5777 5774 5772 5769 5765 5762 5760 5756 5754 5751 5748 5745 5744 5742 5739 5737 5735 5733 5730 5727 5724 5722 5719 5715 5713 5710 5708 5705 5704 5702 5701 5699 5697 5695 5693 5692 5691 5690 5689 5687 5686 5685
5831 5830 5828 5826 5824 5822 5821 5818 5815 5814 5814 5813 5812 5812 5810 5809 5808 5806 5803 5801 5800 5800 5800 5801 5801 5801 5800 5799 5798 5797 5795 5793 5791 5789 5787 5786 5784 5784 5783 5781 5779 5776 5774 5771 5768 5765 5763 5760 5758 5755 5751 5748 5746 5742 5740 5738 5735 5733 5731 5729 5727 5724 5721 5719 5716 5713 5710 5707 5704 5702 5700 5697 5696 5695 5693 5692 5689 5687 5686 5684 5684 5682 5680 5679 5678
5825 5823 5822 5820 5818 5816 5815 5813 5809 5807 5808 5808 5807 5805 5804 5803 5802 5800 5797 5796 5795 5795 5795 5796 5796 5795 5794 5793 5792 5791 5790 5788 5786 5784 5782 5781 5780 5779 5778 5776 5773 5770 5768 5765 5762 5759 5757 5755 5752 5749 5746 5743 5741 5737 5734 5732 5730 5727 5725 5723 5721 5719 5716 5714 5711 5708 5704 5701 5699 5697 5694 5692 5690 5689 5688 5686 5684 5682 5681 5679 5678 5676 5674 5673 5672
5819 5817 5815 5813 5811 5810 5808 5806 5803 5801 5801 5800 5800 5799 5798 5797 5796 5794 5791 5791 5791 5792 5791 5791 5791 5790 5788 5787 5786 5785 5784 5783 5780 5778 5777 5776 5775 5774 5772 5770 5767 5764 5762 5759 5756 5753 5750 5748 5746 5743 5741 5738 5735 5732 5729 5726 5724 5722 5719 5717 5715 5713 5711 5708 5705 5702 5699 5696 5694 5691 5689 5687 5686 5684 5682 5681 5679 5677 5676 5675 5673 5671 5668 5666 5664
5812 5810 5808 5806 5805 5804 5802 5800 5798 5796 5795 5794 5793 5792 5791 5790 5789 5787 5786 5786 5787 5786 5785 5785 5785 5784 5782 5782 5781 5780 5779 5778 5775 5773 5772 5771 5770 5768 5767 5764 5761 5758 5755 5753 5750 5747 5744 5741 5739 5737 5735 5732 5729 5726 5724 5721 5719 5717 5714 5712 5710 5708 5706 5703 5700 5697 5695 5692 5689 5687 5685 5683 5681 5680 5678 5676 5674 5673 5671 5670 5668 5666 5663 5660 5658
5806 5804 5802 5800 5799 5798 5796 5794 5792 5791 5790 5788 5787 5786 5785 5784 5783 5781 5781 5782 5781 5781 5781 5781 5780 5778 5777 5776 5775 5774 5773 5772 5770 5768 5767 5766 5764 5762 5760 5758 5755 5752 5749 5747 5744 5741 5739 5736 5734 5731 5728 5726 5723 5721 5718 5716 5714 5711 5709 5707 5705 5703 5700 5698 5695 5692 5690 5687 5685 5682 5680 5678 5677 5675 5674 5672 5670 5669 5667 5666 5664 5661 5659 5657 5653
5799 5797 5795 5794 5793 5792 5791 5789 5788 5787 5785 5784 5782 5781 5779 5778 5778 5777 5777 5777 5777 5777 5776 5775 5774 5772 5771 5770 5769 5768 5767 5766 5765 5763 5762 5760 5758 5756 5754 5751 5749 5746 5743 5741 5738 5735 5733 5730 5728 5725 5722 5720 5717 5715 5713 5711 5709 5707 5705 5702 5700 5698 5695 5693 5690 5687 5685 5683 5680 5678 5676 5674 5673 5671 5670 5668 5667 5665 5663 5662 5660 5658 5656 5654 5651
5792 5790 5788 5787 5787 5786 5786 5784 5783 5783 5781 5780 5778 5776 5773 5773 5774 5774 5773 5773 5773 5772 5771 5769 5768 5767 5765 5764 5763 5762 5761 5760 5759 5758 5757 5754 5752 5749 5747 5745 5743 5740 5738 5735 5733 5730 5727 5724 5722 5719 5716 5714 5712 5710 5708 5706 5703 5701 5699 5697 5695 5693 5690 5688 5685 5683 5680 5678 5676 5674 5672 5670 5668 5666 5665 5664 5663 5661 5660 5658 5656 5654 5652 5651 5649
5786 5784 5782 5781 5781 5781 5781 5780 5779 5779 5778 5776 5775 5773 5770 5769 5769 5769 5769 5768 5768 5767 5765 5764 5763 5762 5760 5759 5758 5757 5756 5755 5754 5752 5751 5748 5746 5743 5741 5739 5737 5735 5733 5730 5727 5724 5721 5718 5716 5713 5710 5709 5707 5704 5702 5700 5698 5695 5693 5691 5689 5687 5685 5683 5681 5678 5675 5673 5671 5669 5667 5666 5664 5662 5661 5660 5659 5657 5656 5655 5653 5650 5648 5647 5646
5781 5779 5777 5777 5776 5776 5776 5775 5774 5774 5773 5773 5773 5771 5769 5768 5766 5763 5763 5762 5761 5761 5760 5760 5759 5758 5756 5755 5753 5751 5750 5749 5748 5747 5745 5743 5741 5738 5736 5734 5732 5730 5727 5724 5721 5718 5716 5713 5710 5707 5705 5703 5701 5699 5697 5695 5693 5690 5688 5686 5684 5682 5681 5678 5676 5673 5671 5669 5666 5665 5663 5661 5660 5658 5657 5656 5655 5653 5652 5651 5649 5646 5644 5643 5641
5776 5774 5773 5772 5771 5771 5770 5769 5769 5769 5768 5768 5768 5766 5765 5765 5763 5760 5758 5757 5756 5756 5755 5755 5754 5753 5752 5750 5748 5746 5744 5744 5743 5741 5740 5738 5736 5733 5731 5729 5726 5723 5721 5718 5715 5712 5710 5707 5704 5702 5700 5698 5696 5694 5692 5690 5688 5685 5683 5681 5679 5678 5676 5674 5671 5669 5666 5665 5662 5660 5659 5657 5656 5655 5654 5653 5651 5650 5648 5647 5645 5643 5640 5639 5636
5771 5769 5768 5767 5767 5765 5764 5763 5763 5763 5763 5763 5762 5761 5759 5759 5758 5756 5754 5753 5752 5751 5751 5750 5749 5748 5746 5744 5743 5741 5739 5738 5737 5735 5734 5732 5730 5728 5726 5723 5720 5717 5714 5711 5709 5706 5704 5702 5699 5697 5695 5693 5691 5689 5687 5685 5682 5680 5678 5677 5675 5673 5671 5669 5667 5665 5663 5661 5659 5657 5655 5654 5652 5651 5651 5649 5648 5646 5645 5643 5642 5640 5637 5634 5631
5766 5764 5763 5763 5762 5760 5759 5758 5758 5757 5757 5756 5755 5755 5754 5753 5752 5751 5749 5748 5748 5747 5746 5745 5744 5743 5741 5739 5738 5736 5735 5733 5731 5730 5728 5727 5725 5723 5720 5716 5714 5711 5708 5705 5703 5700 5698 5696 5694 5692 5690 5688 5686 5684 5682 5680 5678 5676 5674 5672 5670 5668 5667 5665 5662 5660 5659 5657 5655 5653 5652 5650 5649 5648 5647 5646 5644 5643 5641 5640 5638 5636 5634 5631 5628
5760 5760 5759 5758 5756 5755 5754 5753 5752 5750 5750 5750 5749 5749 5748 5748 5746 5745 5744 5743 5743 5742 5741 5740 5739 5737 5736 5734 5732 5731 5729 5728 5726 5724 5723 5721 5719 5716 5713 5710 5707 5705 5702 5699 5696 5694 5692 5690 5688 5686 5685 5683 5681 5679 5677 5675 5673 5671 5669 5668 5666 5664 5662 5660 5658 5656 5655 5653 5652 5650 5649 5647 5646 5645 5644 5643 5642 5640 5638 5637 5635 5633 5631 5628 5625
5755 5755 5754 5752 5750 5750 5749 5749 5748 5746 5745 5744 5744 5744 5743 5742 5741 5740 5739 5738 5738 5737 5735 5734 5733 5731 5729 5728 5727 5725 5724 5722 5720 5719 5717 5715 5712 5709 5707 5704 5701 5698 5696 5693 5690 5688 5686 5684 5683 5681 5679 5677 5676 5674 5672 5670 5668 5666 5665 5663 5661 5659 5658 5656 5654 5652 5651 5649 5648 5646 5645 5644 5643 5642 5641 5640 5639 5637 5636 5634 5632 5630 5628 5625 5622
5750 5750 5749 5747 5745 5744 5744 5743 5743 5742 5741 5740 5739 5738 5737 5736 5735 5734 5733 5733 5732 5731 5729 5728 5726 5724 5723 5722 5720 5719 5717 5716 5714 5713 5711 5708 5705 5702 5700 5697 5694 5692 5689 5687 5685 5683 5681 5679 5678 5676 5674 5673 5671 5669 5667 5665 5664 5662 5660 5658 5656 5655 5653 5652 5650 5648 5647 5646 5644 5643 5642 5641 5640 5639 5638 5637 5636 5635 5633 5632 5630 5628 5626 5623 5620
5744 5744 5743 5742 5740 5739 5738 5737 5736 5735 5734 5733 5732 5731 5730 5729 5729 5728 5727 5726 5725 5724 5723 5721 5720 5719 5717 5716 5714 5713 5711 5709 5708 5706 5704 5701 5698 5695 5693 5690 5688 5685 5683 5681 5679 5677 5676 5675 5673 5672 5670 5668 5666 5664 5663 5661 5659 5658 5656 5654 5652 5651 5649 5648 5647 5645 5643 5642 5641 5640 5639 5638 5637 5636 5635 5634 5633 5632 5630 5629 5628 5625 5624 5622 5619
5738 5737 5736 5736 5735 5734 5733 5732 5731 5729 5728 5727 5726 5725 5725 5724 5723 5723 5721 5720 5719 5717 5716 5715 5714 5713 5711 5710 5708 5706 5705 5703 5701 5699 5696 5694 5691 5689 5686 5684 5681 5679 5677 5676 5674 5673 5672 5670 5669 5667 5665 5663 5662 5660 5659 5657 5655 5654 5652 5650 5648 5647 5646 5644 5643 5642 5640 5639 5638 5637 5636 5635 5635 5634 5633 5632 5631 5629 5628 5627 5625 5623 5622 5620 5617
5732 5731 5730 5729 5728 5727 5726 5726 5724 5723 5722 5722 5721 5720 5720 5719 5718 5716 5715 5714 5713 5711 5710 5709 5708 5707 5705 5704 5702 5700 5698 5696 5694 5692 5689 5687 5685 5682 5680 5678 5676 5674 5673 5671 5670 5668 5667 5665 5664 5662 5661 5659 5657 5656 5654 5653 5652 5650 5649 5647 5645 5644 5642 5641 5640 5639 5638 5637 5636 5635 5634 5633 5632 5631 5630 5629 5629 5627 5626 5625 5623 5622 5620 5618 5616
5726 5725 5724 5723 5722 5721 5720 5720 5719 5718 5717 5717 5716 5715 5714 5713 5711 5710 5709 5708 5707 5706 5704 5703 5702 5701 5699 5697 5696 5694 5692 5690 5688 5685 5683 5681 5678 5676 5674 5672 5671 5669 5668 5667 5665 5663 5662 5660 5659 5658 5656 5655 5653 5652 5650 5649 5648 5647 5645 5644 5642 5641 5640 5639 5638 5636 5635 5635 5634 5633 5632 5631 5630 5629 5628 5627 5626 5625 5624 5623 5621 5620 5618 5616 5614
5719 5719 5718 5717 5717 5716 5715 5714 5714 5713 5712 5711 5710 5709 5707 5706 5705 5704 5703 5702 5701 5700 5699 5698 5696 5695 5693 5691 5690 5688 5685 5683 5681 5679 5677 5675 5672 5671 5669 5667 5666 5665 5663 5662 5660 5659 5657 5656 5654 5653 5652 5651 5649 5647 5646 5645 5644 5643 5641 5640 5639 5638 5637 5636 5635 5634 5633 5632 5631 5630 5629 5628 5628 5627 5626 5625 5624 5623 5622 5621 5619 5618 5616 5615 5613
5712 5711 5711 5711 5711 5710 5710 5709 5708 5707 5706 5704 5703 5702 5701 5700 5699 5698 5697 5696 5695 5694 5693 5691 5690 5689 5687 5685 5683 5681 5679 5677 5675 5673 5671 5669 5667 5666 5664 5663 5661 5660 5659 5657 5655 5654 5653 5651 5650 5649 5648 5646 5645 5643 5642 5641 5640 5639 5638 5636 5635 5634 5633 5632 5632 5631 5630 5629 5629 5628 5627 5626 5625 5625 5624 5623 5622 5621 5620 5619 5618 5616 5614 5613 5612
5705 5704 5704 5704 5704 5703 5702 5701 5700 5699 5698 5697 5696 5695 5694 5694 5693 5692 5691 5690 5689 5687 5686 5685 5683 5682 5680 5678 5676 5675 5673 5671 5669 5667 5666 5664 5663 5661 5660 5658 5657 5655 5654 5652 5651 5649 5648 5647 5646 5645 5643 5642 5640 5639 5638 5637 5636 5635 5634 5633 5632 5631 5630 5629 5628 5628 5627 5626 5626 5625 5624 5623 5623 5622 5622 5621 5620 5619 5618 5617 5616 5615 5613 5611 5610
5699 5698 5698 5697 5696 5695 5694 5693 5692 5691 5690 5690 5689 5689 5688 5687 5687 5686 5685 5684 5683 5681 5680 5678 5677 5676 5674 5672 5670 5669 5667 5665 5664 5662 5661 5659 5658 5656 5655 5654 5652 5650 5649 5647 5645 5644 5643 5642 5641 5640 5638 5637 5636 5635 5634 5633 5632 5632 5631 5630 5629 5628 5627 5626 5625 5625 5624 5623 5623 5622 5621 5621 5620 5620 5619 5618 5618 5617 5616 5615 5614 5613 5612 5610 5609
5694 5693 5692 5691 5690 5688 5687 5686 5686 5685 5684 5684 5683 5683 5682 5681 5681 5679 5678 5677 5676 5675 5673 5672 5671 5669 5668 5666 5665 5663 5662 5661 5659 5658 5656 5655 5653 5652 5651 5649 5647 5646 5644 5642 5641 5639 5638 5637 5636 5635 5634 5633 5632 5631 5631 5630 5629 5628 5628 5627 5626 5625 5624 5623 5623 5622 5621 5620 5620 5619 5619 5618 5618 5617 5617 5616 5615 5615 5614 5613 5612 5611 5610 5609 5608
5688 5686 5685 5684 5683 5682 5681 5681 5680 5680 5679 5679 5678 5677 5676 5675 5674 5673 5672 5670 5669 5668 5667 5666 5665 5663 5662 5661 5660 5658 5657 5656 5655 5653 5652 5650 5649 5648 5646 5645 5643 5641 5639 5637 5636 5635 5633 5632 5632 5631 5630 5629 5628 5628 5627 5626 5626 5625 5624 5624 5623 5622 5621 5620 5620 5619 5618 5618 5617 5617 5616 5616 5615 5614 5614 5614 5613 5613 5612 5611 5610 5609 5608 5607 5606
5681 5679 5678 5677 5676 5676 5676 5675 5675 5674 5674 5673 5672 5671 5670 5669 5668 5667 5665 5664 5663 5662 5661 5660 5659 5658 5657 5656 5655 5653 5652 5651 5650 5649 5647 5646 5645 5643 5642 5640 5638 5636 5635 5633 5632 5630 5629 5628 5627 5627 5626 5626 5625 5624 5624 5623 5622 5622 5621 5620 5620 5619 5618 5618 5617 5616 5616 5615 5615 5614 5614 5613 5613 5612 5611 5611 5611 5610 5610 5609 5608 5607 5606 5606 5605
5674 5673 5671 5671 5670 5670 5670 5670 5670 5669 5668 5667 5666 5665 5664 5663 5662 5661 5660 5659 5658 5657 5656 5655 5654 5653 5652 5651 5650 5649 5648 5647 5646 5644 5643 5642 5640 5639 5637 5635 5633 5632 5630 5629 5628 5627 5625 5624 5623 5623 5622 5622 5621 5621 5620 5619 5619 5618 5618 5617 5616 5616 5615 5615 5614 5614 5613 5612 5612 5612 5611 5611 5610 5610 5609 5608 5608 5608 5607 5607 5606 5605 5604 5604 5603
5668 5667 5666 5665 5665 5666 5666 5665 5665 5664 5663 5661 5660 5659 5658 5657 5656 5655 5654 5653 5653 5652 5651 5650 5649 5648 5647 5646 5645 5644 5643 5642 5641 5640 5639 5637 5636 5634 5633 5631 5629 5627 5626 5625 5624 5623 5622 5621 5620 5619 5619 5618 5618 5617 5617 5616 5616 5615 5614 5614 5613 5612 5612 5611 5611 5611 5610 5609 5609 5608 5608 5608 5607 5607 5606 5606 5605 5605 5604 5604 5604 5603 5602 5602 5601
5662 5662 5661 5661 5661 5661 5660 5660 5659 5658 5657 5655 5654 5653 5652 5651 5650 5650 5649 5648 5648 5647 5646 5645 5644 5643 5643 5642 5641 5640 5639 5638 5637 5636 5635 5633 5632 5630 5629 5627 5625 5623 5622 5621 5620 5619 5618 5617 5617 5616 5616 5615 5614 5614 5613 5613 5612 5612 5611 5610 5610 5609 5609 5608 5608 5607 5607 5606 5606 5605 5605 5604 5604 5604 5603 5603 5602 5602 5602 5601 5601 5601 5600 5600 5599
5656 5656 5656 5655 5655 5655 5654 5654 5653 5652 5651 5650 5649 5647 5647 5646 5645 5645 5644 5644 5643 5642 5641 5641 5640 5639 5638 5638 5637 5636 5635 5634 5633 5632 5631 5630 5628 5626 5625 5623 5622 5620 5618 5617 5617 5616 5615 5614 5614 5613 5613 5612 5611 5611 5610 5609 5609 5608 5607 5607 5606 5606 5605 5605 5604 5603 5603 5603 5602 5602 5601 5601 5601 5600 5600 5600 5599 5599 5599 5598 5598 5598 5598 5597 5597
5651 5651 5651 5650 5650 5649 5649 5648 5647 5646 5645 5644 5643 5642 5641 5641 5640 5640 5640 5639 5638 5638 5637 5636 5635 5635 5634 5633 5633 5632 5632 5631 5630 5629 5627 5626 5624 5622 5620 5619 5618 5616 5615 5614 5613 5613 5612 5611 5610 5610 5609 5609 5608 5607 5607 5606 5605 5605 5604 5603 5603 5602 5601 5601 5600 5600 5599 5599 5598 5598 5597 5597 5597 5597 5596 5596 5596 5596 5595 5595 5595 5595 5595 5595 5595
5646 5646 5646 5645 5645 5644 5644 5643 5642 5641 5640 5638 5638 5637 5637 5636 5636 5636 5635 5634 5634 5633 5632 5632 5631 5631 5630 5630 5629 5629 5628 5627 5626 5625 5624 5622 5621 5619 5617 5615 5614 5613 5611 5610 5610 5609 5609 5608 5607 5606 5606 5605 5605 5604 5603 5602 5602 5601 5600 5599 5599 5598 5598 5597 5596 5596 5595 5595 5594 5594 5594 5593 5593 5593 5593 5593 5592 5592 5592 5592 5592 5592 5592 5592 5592
5641 5641 5641 5641 5640 5639 5639 5638 5637 5636 5635 5635 5634 5633 5633 5632 5632 5631 5631 5630 5630 5629 5628 5628 5627 5627 5627 5626 5626 5626 5625 5624 5623 5622 5621 5619 5617 5616 5614 5612 5611 5609 5608 5607 5607 5606 5605 5604 5604 5603 5602 5602 5601 5600 5600 5599 5598 5597 5597 5596 5595 5595 5594 5593 5593 5592 5592 5591 5591 5591 5590 5590 5589 5589 5589 5589 5589 5589 5589 5589 5589 5589 5589 5589 5589